Location: Ammerl�gen
(47.2167°N, 9.6000°E)
Time: 16:31:46
(UTC+00:00)

NOAA 19 - Pass Details

Date: 08 December 2021
Orbit: 841 x 860 km, 99.2° (Epoch: 17 January)

Event Time Altitude Azimuth Distance (km) Brightness Sun altitude
Rises 16:07:32 0° 108° (ESE) 3,396 7.9 -6.1°
Reaches altitude 10° 16:10:55 10° 85° (E) 2,468 7.1 -6.6°
Maximum altitude 16:13:50 15° 53° (NE) 2,148 6.7 -7.0°
Drops below altitude 10° 16:16:45 10° 20° (NNE) 2,481 7.2 -7.5°
Sets 16:20:10 0° 359° (N) 3,425 8.1 -8.0°
